GW1144 Weather Reports


Display with metric or nautical units.
time (UTC)temp
F
wind
direction
speed
MPH
gust
MPH
rain 1hr
in
rain 24hr
in
rain mn
in
humidity
%
barometer
mb
20260901084557 60 0 0.0 0.0 0.00 0.00 0.00 90 1013.8
20260901083101 60 0 0.0 1.0 0.00 0.00 0.00 90 1013.5
20260901081613 60 0 0.0 1.0 0.00 0.00 0.00 90 1013.5
20260901080106 60 0 0.0 3.0 0.00 0.00 0.00 89 1013.6
20260901074559 60 0 0.0 0.0 0.00 0.00 0.00 89 1013.6
20260901073101 61 0 0.0 0.0 0.00 0.00 0.00 89 1013.6
20260901071604 61 0 0.0 0.0 0.00 0.00 0.00 88 1013.8
20260901070105 61 0 0.0 0.0 0.00 0.00 0.00 87 1013.8
20260901064558 61 0 0.0 0.0 0.00 0.00 0.00 87 1013.9
20260901063059 62 0 0.0 0.0 0.00 0.00 0.00 87 1014.0
20260901061557 62 0 0.0 0.0 0.00 0.00 0.00 86 1014.0
20260901060104 62 0 0.0 2.0 0.00 0.00 0.00 86 1014.2
20260901054558 62 0 0.0 0.0 0.00 0.00 0.00 84 1014.2
20260901053119 63 0 0.0 0.0 0.00 0.00 0.00 83 1014.2
20260901051604 64 0 0.0 0.0 0.00 0.00 0.00 83 1014.2
20260901050100 64 0 0.0 0.0 0.00 0.00 0.00 81 1014.0
20260901044557 65 0 0.0 1.0 0.00 0.00 0.00 80 1013.9
20260901043125 66 0 0.0 1.0 0.00 0.00 0.00 79 1013.9
20260901041610 67 0 0.0 1.0 0.00 0.00 0.00 76 1013.8
20260901040106 68 0 0.0 0.0 0.00 0.00 0.00 75 1013.7
20260901034607 69 0 0.0 0.0 0.00 0.00 0.00 72 1013.7
20260901033108 70 0 0.0 1.0 0.00 0.00 0.00 72 1013.5
20260901031554 71 0 0.0 2.0 0.00 0.00 0.00 68 1013.6
20260901030104 72 162 0.0 1.0 0.00 0.00 0.00 67 1013.4
20260901024607 73 162 0.0 2.0 0.00 0.00 0.00 65 1013.3
20260901023054 75 0 0.0 1.0 0.00 0.00 0.00 63 1013.2
20260901021609 75 0 0.0 1.0 0.00 0.00 0.00 62 1013.1
20260901020104 76 228 1.0 2.0 0.00 0.00 0.00 57 1013.0
20260901014603 77 0 0.0 2.0 0.00 0.00 0.00 56 1012.8
20260901013105 78 0 0.0 3.0 0.00 0.00 0.00 54 1012.6
20260901011602 78 0 0.0 3.0 0.00 0.00 0.00 54 1012.4
20260901010106 79 192 0.0 2.0 0.00 0.00 0.00 52 1012.4
20260901004610 80 0 0.0 3.0 0.00 0.00 0.00 51 1012.4
20260901003104 81 188 0.0 4.0 0.00 0.00 0.00 49 1012.4
20260901001612 82 192 2.0 4.0 0.00 0.00 0.00 47 1012.4
20260901000108 83 227 1.0 4.0 0.00 0.00 0.00 47 1012.2
20260831234605 84 246 1.0 6.0 0.00 0.00 0.00 44 1012.3
20260831233102 85 344 1.0 5.0 0.00 0.00 0.00 42 1012.3
20260831231558 85 261 1.0 8.0 0.00 0.00 0.00 41 1012.3
20260831230108 86 300 1.0 5.0 0.00 0.00 0.00 43 1012.4
20260831224606 86 0 2.0 9.0 0.00 0.00 0.00 44 1012.3
20260831223058 86 273 3.0 8.0 0.00 0.00 0.00 43 1012.2
20260831221608 86 344 3.0 8.0 0.00 0.00 0.00 43 1012.2
20260831220128 85 329 4.0 9.0 0.00 0.00 0.00 46 1012.3
20260831214558 86 275 2.0 7.0 0.00 0.00 0.00 42 1012.1
20260831213053 86 237 3.0 8.0 0.00 0.00 0.00 40 1012.2
20260831211600 85 79 2.0 8.0 0.00 0.00 0.00 49 1012.2
20260831210100 85 277 2.0 10.0 0.00 0.00 0.00 45 1012.3
20260831204600 86 9 2.0 8.0 0.00 0.00 0.00 46 1012.3
20260831203134 85 299 4.0 11.0 0.00 0.00 0.00 46 1012.3
20260831201600 86 305 3.0 9.0 0.00 0.00 0.00 42 1012.3
20260831200058 86 294 1.0 9.0 0.00 0.00 0.00 43 1012.2
20260831194554 84 246 2.0 9.0 0.00 0.00 0.00 44 1012.1
20260831193101 84 298 2.0 6.0 0.00 0.00 0.00 49 1012.1
20260831191559 84 314 2.0 9.0 0.00 0.00 0.00 49 1012.1
20260831190135 84 311 3.0 9.0 0.00 0.00 0.00 51 1012.1
20260831184606 84 313 1.0 10.0 0.00 0.00 0.00 50 1012.1
20260831183055 84 259 5.0 12.0 0.00 0.00 0.00 51 1012.1
20260831181602 83 262 6.0 13.0 0.00 0.00 0.00 47 1012.1
20260831180058 83 292 4.0 9.0 0.00 0.00 0.00 52 1012.2
20260831174602 82 236 5.0 12.0 0.00 0.00 0.00 50 1012.2
20260831173105 81 278 5.0 11.0 0.00 0.00 0.00 57 1012.3
20260831171605 81 265 5.0 12.0 0.00 0.00 0.00 62 1012.4
20260831170105 80 250 3.0 10.0 0.00 0.00 0.00 67 1012.2
20260831164603 79 273 4.0 10.0 0.00 0.00 0.00 71 1012.3
20260831163101 78 271 3.0 8.0 0.00 0.00 0.00 75 1012.1
20260831161603 78 231 2.0 10.0 0.00 0.00 0.00 77 1012.1
20260831160134 76 282 3.0 9.0 0.00 0.00 0.00 80 1012.0
20260831154619 76 307 4.0 10.0 0.00 0.00 0.00 81 1011.8
20260831153129 76 303 5.0 11.0 0.00 0.00 0.00 81 1011.7
20260831151600 76 260 2.0 8.0 0.00 0.00 0.00 84 1011.5
20260831150100 76 299 1.0 11.0 0.00 0.00 0.00 85 1011.5
20260831144557 74 335 1.0 5.0 0.00 0.00 0.00 87 1011.3
20260831143101 73 341 2.0 10.0 0.00 0.00 0.00 89 1011.1
20260831141600 73 263 1.0 7.0 0.00 0.00 0.00 92 1010.9
20260831140058 72 328 3.0 11.0 0.00 0.00 0.00 93 1010.6
20260831134608 72 267 4.0 10.0 0.00 0.00 0.00 94 1010.3
20260831133101 71 342 3.0 7.0 0.00 0.00 0.00 95 1010.1
20260831131604 70 294 1.0 3.0 0.00 0.00 0.00 95 1010.0
20260831130119 69 237 0.0 2.0 0.00 0.00 0.00 94 1010.0
20260831124602 68 0 0.0 1.0 0.00 0.00 0.00 94 1009.7
20260831123059 68 0 0.0 1.0 0.00 0.00 0.00 93 1009.2
20260831121602 68 0 0.0 0.0 0.00 0.00 0.00 93 1008.8
20260831120147 68 0 0.0 0.0 0.00 0.00 0.00 93 1008.6
20260831114600 68 0 0.0 0.0 0.00 0.00 0.00 93 1008.4
20260831113104 69 0 0.0 2.0 0.00 0.00 0.00 93 1008.5
20260831111601 69 0 0.0 0.0 0.00 0.00 0.00 93 1008.1
20260831110100 69 0 0.0 0.0 0.00 0.00 0.00 93 1007.9
20260831104607 69 0 0.0 0.0 0.00 0.00 0.00 93 1008.1
20260831103100 69 0 0.0 1.0 0.00 0.00 0.00 93 1007.9
20260831101610 69 0 0.0 1.0 0.00 0.00 0.00 92 1007.8
20260831100104 70 0 0.0 0.0 0.00 0.00 0.00 92 1007.6
20260831094608 70 0 0.0 0.0 0.00 0.00 0.00 92 1007.7
20260831093104 71 0 0.0 1.0 0.00 0.00 0.00 93 1007.7
20260831091604 71 0 0.0 3.0 0.00 0.00 0.00 92 1007.5
20260831090123 71 0 0.0 2.0 0.00 0.00 0.00 92 1007.4